N9XP-9 Weather Reports


time (UTC)temp
F
wind
direction
speed
knots
gust
knots
rain 1hr
in
rain 24hr
in
rain mn
in
humidity
%
barometer
mb
20260509011542 61 163 0.0 2.6 0.00 0.00 0.00 57 1006.0
20260509010041 62 141 0.9 3.5 0.00 0.00 0.00 55 1005.9
20260509004540 63 172 0.9 3.5 0.00 0.00 0.00 54 1006.0
20260509003043 64 169 1.7 5.2 0.00 0.00 0.00 52 1006.0
20260509001538 64 148 0.0 2.6 0.00 0.00 0.00 50 1006.1
20260509000038 64 141 0.9 3.5 0.00 0.00 0.00 49 1006.1
20260508234536 65 134 0.0 3.5 0.00 0.00 0.00 49 1006.1
20260508233036 65 110 0.9 4.3 0.00 0.00 0.00 47 1006.2
20260508231535 65 172 0.9 5.2 0.00 0.00 0.00 48 1006.2
20260508230034 66 171 0.9 3.5 0.00 0.00 0.00 47 1006.4
20260508224533 66 160 2.6 6.1 0.00 0.00 0.00 44 1006.3
20260508223039 66 160 2.6 4.3 0.00 0.00 0.00 46 1006.4
20260508221531 66 157 0.9 4.3 0.00 0.00 0.00 45 1006.5
20260508220033 66 141 0.0 8.7 0.00 0.00 0.00 48 1006.6
20260508214528 65 121 0.9 3.5 0.00 0.04 0.00 48 1006.8
20260508213027 65 141 1.7 7.0 0.00 0.04 0.00 48 1006.9
20260508211528 65 161 2.6 6.1 0.00 0.04 0.00 47 1006.9
20260508210025 66 121 2.6 6.1 0.00 0.04 0.00 46 1007.0
20260508204524 68 112 0.9 6.1 0.00 0.04 0.00 42 1007.0
20260508203022 69 353 0.9 8.7 0.00 0.04 0.00 40 1007.1
20260508201522 67 169 0.9 3.5 0.00 0.04 0.00 45 1007.4
20260508200019 65 160 0.0 7.0 0.00 0.04 0.00 43 1007.7
20260508194513 66 138 0.0 3.5 0.00 0.04 0.00 47 1007.9
20260508193011 65 137 0.0 4.3 0.00 0.04 0.00 49 1008.2
20260508191521 66 131 3.5 7.0 0.00 0.04 0.00 47 1008.3
20260508190013 66 156 1.7 5.2 0.00 0.04 0.00 50 1008.5
20260508184506 65 157 1.7 6.1 0.00 0.04 0.00 49 1008.6
20260508183004 66 46 0.9 3.5 0.00 0.04 0.00 48 1008.9
20260508181609 65 139 1.7 7.0 0.00 0.04 0.00 50 1009.1
20260508174606 64 131 0.9 6.1 0.00 0.04 0.00 54 1009.5
20260508173053 63 82 0.9 7.0 0.00 0.04 0.00 56 1009.7
20260508171549 63 133 0.0 6.1 0.00 0.04 0.00 56 1010.1
20260508170048 63 113 0.9 5.2 0.00 0.04 0.00 56 1010.2
20260508164544 62 102 1.7 5.2 0.00 0.04 0.00 60 1010.5
20260508163041 62 164 1.7 5.2 0.00 0.04 0.00 57 1010.6
20260508161540 62 147 1.7 4.3 0.00 0.04 0.00 57 1010.9
20260508160041 62 115 1.7 4.3 0.00 0.04 0.00 57 1010.9
20260508154536 61 91 0.9 3.5 0.00 0.04 0.00 56 1011.1
20260508153032 60 101 0.0 1.7 0.00 0.04 0.00 61 1011.2
20260508151531 59 122 1.7 3.5 0.00 0.04 0.00 60 1011.3
20260508150032 58 137 0.9 4.3 0.00 0.04 0.00 56 1011.5
20260508144522 56 162 0.9 3.5 0.00 0.04 0.00 57 1011.6
20260508143021 55 92 1.7 3.5 0.00 0.04 0.00 63 1011.6
20260508141517 54 85 1.7 3.5 0.00 0.04 0.00 69 1011.9
20260508140012 53 123 1.7 4.3 0.00 0.04 0.00 74 1012.0
20260508134507 51 104 0.0 1.7 0.00 0.04 0.00 78 1011.8
20260508133005 50 93 0.0 1.7 0.00 0.04 0.00 83 1011.7
20260508131600 48 76 0.0 2.6 0.00 0.04 0.00 85 1011.8
20260508130055 47 66 0.0 3.5 0.00 0.04 0.00 88 1011.9
20260508124559 45 85 0.9 2.6 0.00 0.04 0.00 91 1011.8
20260508123052 44 115 0.9 2.6 0.00 0.04 0.00 92 1011.9
20260508121556 43 30 0.0 0.9 0.00 0.04 0.00 95 1012.0
20260508120050 42 332 0.0 1.7 0.00 0.04 0.00 95 1011.8
20260508114549 42 26 0.0 0.9 0.00 0.04 0.00 96 1011.9
20260508113104 41 28 0.0 0.0 0.00 0.04 0.00 97 1011.8
20260508111551 40 136 0.0 0.9 0.00 0.04 0.00 97 1011.7
20260508110053 39 135 0.0 0.0 0.00 0.04 0.00 96 1011.5
20260508104546 39 138 0.0 0.9 0.00 0.04 0.00 96 1011.7
20260508103046 38 138 0.0 0.0 0.00 0.04 0.00 96 1011.6
20260508101547 38 138 0.0 0.9 0.00 0.04 0.00 96 1011.8
20260508100043 38 126 0.0 0.0 0.00 0.04 0.00 96 1011.7
20260508094541 38 133 0.0 0.0 0.00 0.04 0.00 96 1011.7
20260508093046 38 134 0.0 0.0 0.00 0.04 0.00 95 1011.8
20260508091549 38 132 0.0 0.0 0.00 0.04 0.00 95 1011.8
20260508090040 39 132 0.0 0.0 0.00 0.04 0.00 95 1011.9
20260508084536 39 131 0.0 0.0 0.00 0.04 0.00 94 1012.0
20260508083033 40 133 0.0 0.9 0.00 0.04 0.00 94 1012.1
20260508081532 40 133 0.0 0.0 0.00 0.04 0.00 94 1012.2
20260508080039 40 136 0.0 0.0 0.00 0.04 0.00 93 1012.3
20260508074540 40 137 0.0 0.0 0.00 0.04 0.00 94 1012.3
20260508073029 40 137 0.0 0.0 0.00 0.04 0.00 93 1012.5
20260508071531 40 138 0.0 0.0 0.00 0.04 0.00 92 1012.5
20260508070024 41 136 0.0 0.0 0.00 0.04 0.00 90 1012.6
20260508064522 41 138 0.0 0.9 0.00 0.04 0.00 90 1012.6
20260508063020 42 270 0.0 0.0 0.00 0.04 0.00 90 1012.5
20260508061521 42 150 0.0 0.9 0.00 0.04 0.00 90 1012.5
20260508060017 43 128 0.0 0.0 0.00 0.04 0.00 88 1012.4
20260508054515 43 128 0.0 1.7 0.00 0.04 0.00 88 1012.4
20260508053013 43 138 0.0 0.0 0.00 0.04 0.00 87 1012.3
20260508051509 44 141 0.0 0.0 0.00 0.04 0.00 85 1012.2
20260508050008 45 140 0.0 0.0 0.00 0.04 0.00 83 1012.2
20260508044505 46 141 0.0 0.0 0.00 0.04 0.04 81 1012.1
20260508043006 47 140 0.0 0.0 0.00 0.04 0.04 77 1012.1
20260508041505 46 141 0.0 0.9 0.00 0.04 0.04 79 1012.0
20260508040009 45 139 0.0 0.9 0.00 0.04 0.04 84 1011.8
20260508034502 44 140 0.0 0.0 0.00 0.04 0.04 85 1011.7
20260508033002 44 139 0.0 0.0 0.00 0.04 0.04 84 1011.5
20260508031503 45 140 0.0 0.9 0.00 0.04 0.04 82 1011.6
20260508030001 45 142 0.0 0.0 0.00 0.04 0.04 80 1011.5
20260508024601 46 139 0.0 0.0 0.00 0.04 0.04 81 1011.4
20260508023100 46 139 0.0 0.0 0.00 0.04 0.04 79 1011.3
20260508021600 47 139 0.0 0.0 0.00 0.04 0.04 76 1011.2
20260508014559 49 141 0.0 0.0 0.00 0.04 0.04 72 1010.8
20260508013058 50 139 0.0 0.9 0.00 0.04 0.04 71 1010.6